FIN61 RJTT-EFHK

Flight info

Callsign FIN61
Flight time N/A
Altitude 35000
Route INUBO Y808 PUTER A590 PASRO/N0495F370 A590 POWAL DCT OPAKE DCT NATES R338 MARCC DCT JUJXI DCT OMEKA/N0493F390 DCT 81N120W 82N100W 82N080W 82N060W/M085F390 82N040W 81N020W/M085F410 78N000W/N0502F410 DCT VATAX DCT IBOSU Y86 LUSEP
Aircraft A359/H-SDE2E3GHIJ3J4J5LM1ORWXY/LB1D1

Departure

Time N/A
Airport Tokyo Haneda International Airport (RJTT)

Arrival

Time 2026-04-24 21:23
Airport Helsinki Vantaa Airport (EFHK)
Time Latitude Longitude Altitude Speed Heading
2026-04-24 20:12 68.94873 19.46692 40721 ft 525 kts 160°
2026-04-24 20:12 68.88102 19.53933 40717 ft 525 kts 160°
2026-04-24 20:13 68.81274 19.61186 40709 ft 525 kts 161°
2026-04-24 20:13 68.74448 19.68390 40712 ft 525 kts 161°
2026-04-24 20:14 68.67625 19.75544 40711 ft 525 kts 161°
2026-04-24 20:14 68.60787 19.82667 40708 ft 525 kts 161°
2026-04-24 20:15 68.53960 19.89732 40708 ft 525 kts 161°
2026-04-24 20:15 68.47124 19.96761 40704 ft 525 kts 161°
2026-04-24 20:16 68.40285 20.03747 40698 ft 525 kts 161°
2026-04-24 20:16 68.33440 20.10694 40702 ft 525 kts 161°
2026-04-24 20:17 68.26641 20.17549 40698 ft 525 kts 161°
2026-04-24 20:17 68.16369 20.27826 40692 ft 525 kts 161°
2026-04-24 20:18 68.09517 20.34626 40670 ft 525 kts 161°
2026-04-24 20:18 68.02659 20.41390 40646 ft 525 kts 161°
2026-04-24 20:19 67.95796 20.48114 40626 ft 525 kts 161°
2026-04-24 20:19 67.88935 20.54795 40611 ft 525 kts 161°
2026-04-24 20:20 67.82059 20.61449 40613 ft 525 kts 162°
2026-04-24 20:20 67.75237 20.68010 40624 ft 525 kts 162°
2026-04-24 20:21 67.68365 20.74577 40641 ft 525 kts 162°
2026-04-24 20:21 67.61486 20.81111 40657 ft 525 kts 162°
2026-04-24 20:22 67.54594 20.87615 40676 ft 525 kts 162°
2026-04-24 20:22 67.47721 20.94062 40680 ft 525 kts 162°
2026-04-24 20:23 67.40843 21.00474 40662 ft 525 kts 162°
2026-04-24 20:23 67.33953 21.06859 40641 ft 525 kts 162°
2026-04-24 20:24 67.27119 21.13153 40633 ft 525 kts 162°
2026-04-24 20:24 67.20237 21.19452 40629 ft 525 kts 162°
2026-04-24 20:25 67.13349 21.25718 40624 ft 525 kts 162°
2026-04-24 20:25 67.06467 21.31941 40646 ft 525 kts 162°
2026-04-24 20:26 66.99583 21.38127 40642 ft 524 kts 162°
2026-04-24 20:26 66.92692 21.44284 40663 ft 524 kts 162°
2026-04-24 20:27 66.85797 21.50407 40665 ft 524 kts 162°
2026-04-24 20:27 66.78893 21.56502 40666 ft 524 kts 162°
2026-04-24 20:28 66.72004 21.62549 40662 ft 524 kts 162°
2026-04-24 20:28 66.65103 21.68570 40661 ft 524 kts 162°
2026-04-24 20:29 66.58201 21.74556 40655 ft 524 kts 163°
2026-04-24 20:29 66.51303 21.80503 40654 ft 524 kts 163°
2026-04-24 20:30 66.44441 21.86385 40654 ft 524 kts 163°
2026-04-24 20:30 66.37527 21.92276 40650 ft 525 kts 163°
2026-04-24 20:31 66.31747 21.97177 40651 ft 524 kts 163°
2026-04-24 20:31 66.24822 22.03015 40653 ft 525 kts 163°
2026-04-24 20:32 66.17904 22.08814 40648 ft 525 kts 163°
2026-04-24 20:32 66.10982 22.14582 40646 ft 525 kts 163°
2026-04-24 20:33 66.04101 22.20286 40640 ft 524 kts 163°
2026-04-24 20:33 65.97179 22.25989 40643 ft 524 kts 163°
2026-04-24 20:34 65.90270 22.31649 40637 ft 524 kts 163°
2026-04-24 20:34 65.83341 22.37293 40637 ft 524 kts 163°
2026-04-24 20:35 65.76422 22.42897 40633 ft 524 kts 163°
2026-04-24 20:35 65.69502 22.48471 40635 ft 524 kts 163°
2026-04-24 20:36 65.62585 22.54010 40635 ft 523 kts 163°
2026-04-24 20:36 65.55651 22.59532 40635 ft 523 kts 163°
2026-04-24 20:37 65.48772 22.64979 40634 ft 523 kts 163°
2026-04-24 20:37 65.41853 22.70428 40633 ft 523 kts 163°
2026-04-24 20:38 65.34903 22.75870 40633 ft 524 kts 163°
2026-04-24 20:38 65.27970 22.81270 40630 ft 524 kts 163°
2026-04-24 20:39 65.21036 22.86640 40631 ft 524 kts 163°
2026-04-24 20:39 65.14148 22.91946 40625 ft 524 kts 163°
2026-04-24 20:40 65.07207 22.97262 40629 ft 524 kts 163°
2026-04-24 20:40 65.00269 23.02548 40629 ft 524 kts 164°
2026-04-24 20:41 64.93328 23.07805 40628 ft 524 kts 164°
2026-04-24 20:41 64.86385 23.13037 40627 ft 523 kts 164°
2026-04-24 20:42 64.79449 23.18236 40627 ft 523 kts 164°
2026-04-24 20:42 64.72506 23.23412 40628 ft 523 kts 164°
2026-04-24 20:43 64.65572 23.28553 40626 ft 522 kts 164°
2026-04-24 20:43 64.58642 23.33664 40628 ft 522 kts 164°
2026-04-24 20:44 64.51712 23.38747 40628 ft 522 kts 164°
2026-04-24 20:44 64.44778 23.43807 40626 ft 522 kts 164°
2026-04-24 20:45 64.37891 23.48805 40632 ft 522 kts 164°
2026-04-24 20:45 64.30957 23.53812 40632 ft 522 kts 164°
2026-04-24 20:46 64.24020 23.58795 40630 ft 522 kts 165°
2026-04-24 20:46 64.17067 23.63762 40631 ft 522 kts 165°
2026-04-24 20:47 64.10118 23.68702 40630 ft 523 kts 165°
2026-04-24 20:47 64.03211 23.73584 40642 ft 523 kts 165°
2026-04-24 20:48 63.96258 23.78473 40636 ft 523 kts 165°
2026-04-24 20:48 63.89291 23.83346 40630 ft 523 kts 165°
2026-04-24 20:49 63.82327 23.88193 40635 ft 524 kts 165°
2026-04-24 20:49 63.75356 23.93019 40639 ft 524 kts 165°
2026-04-24 20:50 63.68372 23.97830 40643 ft 525 kts 165°
2026-04-24 20:50 63.61377 24.02624 40635 ft 525 kts 165°
2026-04-24 20:51 63.54393 24.07386 40639 ft 524 kts 165°
2026-04-24 20:51 63.47412 24.12121 40642 ft 523 kts 165°
2026-04-24 20:52 63.40448 24.16821 40642 ft 523 kts 165°
2026-04-24 20:52 63.33479 24.21501 40648 ft 522 kts 165°
2026-04-24 20:53 63.26558 24.26125 40650 ft 522 kts 165°
2026-04-24 20:53 63.19608 24.30745 40652 ft 521 kts 165°
2026-04-24 20:54 63.12667 24.35337 40657 ft 520 kts 165°
2026-04-24 20:54 63.05732 24.39901 40653 ft 519 kts 165°
2026-04-24 20:55 62.98816 24.44431 40659 ft 519 kts 165°
2026-04-24 20:55 62.91894 24.48943 40658 ft 518 kts 165°
2026-04-24 20:56 62.84984 24.53423 40664 ft 517 kts 165°
2026-04-24 20:56 62.78122 24.57850 40667 ft 517 kts 166°
2026-04-24 20:57 62.71215 24.62284 40664 ft 516 kts 166°
2026-04-24 20:57 62.64320 24.66691 40667 ft 516 kts 166°
2026-04-24 20:58 62.57435 24.71068 40671 ft 515 kts 166°
2026-04-24 20:58 62.53524 24.73547 40671 ft 515 kts 166°
2026-04-24 20:59 62.46673 24.77871 40675 ft 514 kts 166°
2026-04-24 20:59 62.39809 24.82181 40676 ft 514 kts 166°
2026-04-24 21:00 62.33059 24.86408 40215 ft 496 kts 166°
2026-04-24 21:00 62.29763 24.88471 39191 ft 492 kts 167°
2026-04-24 21:00 62.26450 24.90533 37698 ft 499 kts 167°
2026-04-24 21:01 62.23093 24.92609 35951 ft 506 kts 168°
2026-04-24 21:01 62.19654 24.94719 34847 ft 518 kts 168°
2026-04-24 21:01 62.16228 24.96823 34233 ft 504 kts 168°
2026-04-24 21:01 62.12891 24.98885 33479 ft 497 kts 168°
2026-04-24 21:02 62.09556 25.00940 32606 ft 498 kts 169°
2026-04-24 21:02 62.06221 25.02982 31779 ft 501 kts 169°
2026-04-24 21:02 62.02864 25.05029 30959 ft 503 kts 170°
2026-04-24 21:02 61.99471 25.07085 30128 ft 512 kts 170°
2026-04-24 21:03 61.96020 25.09162 29098 ft 518 kts 171°
2026-04-24 21:03 61.92550 25.11236 28330 ft 515 kts 170°
2026-04-24 21:03 61.89113 25.13292 27643 ft 512 kts 170°
2026-04-24 21:03 61.85696 25.15343 26972 ft 508 kts 170°
2026-04-24 21:04 61.82308 25.17380 26316 ft 504 kts 170°
2026-04-24 21:04 61.78945 25.19402 25660 ft 501 kts 170°
2026-04-24 21:04 61.75606 25.21407 25013 ft 497 kts 170°
2026-04-24 21:04 61.72288 25.23393 24352 ft 494 kts 170°
2026-04-24 21:05 61.68990 25.25365 23700 ft 491 kts 170°
2026-04-24 21:05 61.65709 25.27323 23012 ft 488 kts 170°
2026-04-24 21:05 61.62475 25.28850 22613 ft 475 kts 179°
2026-04-24 21:05 61.59214 25.29366 22177 ft 465 kts 184°
2026-04-24 21:06 61.56013 25.29505 21587 ft 456 kts 186°
2026-04-24 21:06 61.52859 25.29418 20975 ft 450 kts 188°
2026-04-24 21:06 61.49746 25.29218 20369 ft 444 kts 188°
2026-04-24 21:06 61.46663 25.28984 19763 ft 440 kts 188°
2026-04-24 21:07 61.41136 25.28589 18655 ft 433 kts 188°
2026-04-24 21:07 61.38132 25.28407 18039 ft 430 kts 187°
2026-04-24 21:07 61.35143 25.28246 17353 ft 427 kts 187°
2026-04-24 21:08 61.32191 25.28104 16745 ft 423 kts 187°
2026-04-24 21:08 61.29266 25.27969 16124 ft 418 kts 187°
2026-04-24 21:08 61.26365 25.27843 15492 ft 415 kts 186°
2026-04-24 21:08 61.23531 25.27721 14923 ft 411 kts 186°
2026-04-24 21:09 61.20666 25.27654 14606 ft 418 kts 185°
2026-04-24 21:09 61.17730 25.27633 14328 ft 424 kts 185°
2026-04-24 21:09 61.14864 25.27635 13743 ft 405 kts 184°
2026-04-24 21:09 61.12031 25.27624 12971 ft 406 kts 184°
2026-04-24 21:10 61.09211 25.27602 12227 ft 404 kts 184°
2026-04-24 21:10 61.06411 25.27581 11520 ft 401 kts 184°
2026-04-24 21:10 61.03629 25.27561 11021 ft 393 kts 183°
2026-04-24 21:10 61.01031 25.27562 10892 ft 353 kts 183°
2026-04-24 21:11 60.98693 25.27567 10801 ft 320 kts 184°
2026-04-24 21:11 60.96563 25.27563 10700 ft 297 kts 184°
2026-04-24 21:11 60.94502 25.27545 10585 ft 296 kts 184°
2026-04-24 21:11 60.92456 25.27523 10459 ft 293 kts 184°
2026-04-24 21:12 60.90422 25.27502 10329 ft 292 kts 184°
2026-04-24 21:12 60.88392 25.27482 10134 ft 292 kts 184°
2026-04-24 21:12 60.86360 25.27450 9765 ft 293 kts 184°
2026-04-24 21:12 60.84307 25.27412 9367 ft 300 kts 184°
2026-04-24 21:13 60.82193 25.27381 9029 ft 305 kts 184°
2026-04-24 21:13 60.80076 25.27361 8631 ft 302 kts 183°
2026-04-24 21:13 60.77987 25.27345 8205 ft 299 kts 183°
2026-04-24 21:13 60.75905 25.27328 7830 ft 298 kts 183°
2026-04-24 21:14 60.73838 25.27314 7453 ft 296 kts 183°
2026-04-24 21:14 60.71800 25.27299 7083 ft 295 kts 183°
2026-04-24 21:14 60.69757 25.27282 6717 ft 292 kts 183°
2026-04-24 21:14 60.67752 25.27269 6364 ft 292 kts 183°
2026-04-24 21:15 60.65720 25.27253 6002 ft 291 kts 183°
2026-04-24 21:15 60.63670 25.27244 5588 ft 290 kts 183°
2026-04-24 21:15 60.61695 25.27231 5252 ft 287 kts 183°
2026-04-24 21:15 60.59702 25.27214 4908 ft 284 kts 183°
2026-04-24 21:16 60.57735 25.27198 4558 ft 281 kts 182°
2026-04-24 21:16 60.55794 25.27194 4337 ft 275 kts 182°
2026-04-24 21:16 60.53948 25.27194 4232 ft 252 kts 182°
2026-04-24 21:16 60.52282 25.27196 4167 ft 227 kts 183°
2026-04-24 21:17 60.50737 25.27187 4108 ft 221 kts 183°
2026-04-24 21:17 60.49224 25.27176 4015 ft 211 kts 183°
2026-04-24 21:17 60.47806 25.27178 3987 ft 199 kts 182°
2026-04-24 21:17 60.46473 25.26956 3908 ft 186 kts 201°
2026-04-24 21:18 60.45454 25.25593 3785 ft 169 kts 229°
2026-04-24 21:18 60.44680 25.23898 3696 ft 160 kts 233°
2026-04-24 21:18 60.43962 25.22228 3475 ft 156 kts 234°
2026-04-24 21:18 60.43258 25.20573 3249 ft 155 kts 234°
2026-04-24 21:19 60.42544 25.18917 3138 ft 155 kts 233°
2026-04-24 21:19 60.41840 25.17320 3024 ft 153 kts 233°
2026-04-24 21:19 60.41154 25.15772 3008 ft 141 kts 233°
2026-04-24 21:19 60.40512 25.14357 2910 ft 134 kts 232°
2026-04-24 21:20 60.39193 25.11447 2437 ft 145 kts 231°
2026-04-24 21:20 60.38527 25.09951 2304 ft 146 kts 232°
2026-04-24 21:20 60.37824 25.08387 2047 ft 151 kts 231°
2026-04-24 21:21 60.37109 25.06791 1538 ft 155 kts 231°
2026-04-24 21:21 60.36403 25.05204 1148 ft 151 kts 231°
2026-04-24 21:21 60.35725 25.03654 852 ft 141 kts 230°
2026-04-24 21:21 60.35072 25.02240 679 ft 137 kts 227°
2026-04-24 21:22 60.34433 25.00870 565 ft 132 kts 227°
2026-04-24 21:22 60.33811 24.99515 388 ft 130 kts 227°
2026-04-24 21:22 60.33194 24.98185 242 ft 129 kts 227°
2026-04-24 21:22 60.32592 24.96862 175 ft 123 kts 227°
2026-04-24 21:23 60.32097 24.95766 169 ft 78 kts 227°
2026-04-24 21:23 60.31911 24.95386 168 ft 20 kts 215°
2026-04-24 21:23 60.31803 24.95271 169 ft 7 kts 202°
2026-04-24 21:23 60.31746 24.95230 169 ft 10 kts 198°
2026-04-24 21:24 60.31684 24.95192 168 ft 7 kts 193°
2026-04-24 21:24 60.31681 24.95191 168 ft 0 kts 192°
2026-04-24 21:24 60.31664 24.95193 168 ft 9 kts 171°
2026-04-24 21:24 60.31597 24.95222 168 ft 10 kts 201°
2026-04-24 21:25 60.31543 24.95110 168 ft 13 kts 227°
2026-04-24 21:25 60.31475 24.94978 168 ft 12 kts 202°
2026-04-24 21:25 60.31406 24.95061 168 ft 13 kts 129°
2026-04-24 21:25 60.31337 24.95201 168 ft 16 kts 137°
2026-04-24 21:26 60.31250 24.95361 168 ft 18 kts 137°
2026-04-24 21:26 60.31171 24.95511 168 ft 13 kts 129°
2026-04-24 21:26 60.31187 24.95651 168 ft 12 kts 48°
2026-04-24 21:26 60.31248 24.95787 168 ft 15 kts 47°
2026-04-24 21:27 60.31323 24.95947 168 ft 17 kts 48°
2026-04-24 21:27 60.31364 24.96106 168 ft 9 kts 106°
2026-04-24 21:27 60.31315 24.96205 168 ft 11 kts 136°
2026-04-24 21:27 60.31328 24.96304 168 ft 8 kts 47°
2026-04-24 21:28 60.31344 24.96339 168 ft 3 kts 49°
2026-04-24 21:28 60.31351 24.96356 168 ft 0 kts 49°